Location: East Horndon
(51.5667°N, 0.3500°E)
Time: 09:49:21
(UTC+00:00)

H-2A R/B - Pass Details

Date: 08 November 2025
Orbit: 522 x 537 km, 98.2° (Epoch: 11 December)

Event Time Altitude Azimuth Distance (km) Brightness Sun altitude
Rises 04:05:22 0° 19° (NNE) 2,685 7.2 -28.0°
Reaches altitude 10° 04:07:33 10° 25° (NNE) 1,786 6.3 -27.6°
Enters shadow 04:10:30 40° 64° (ENE) 789 4.5 -27.2°
